Voltar ao catálogo

COSMOS 2444

GLONASS

AtivoNavegaçãoMEO
NORAD 33380·PAYLOAD·🇷🇺 Russia

Lançado Sep 25, 2008 de Baikonur Cosmodrome

Loading…

Próximas Passagens (próximas 24 horas)

TLE

EnvelhecendoSource: Space-Track

Época: Aug 30, 2026, 00:42 UTC

1 33380U 08046C   26242.02973212 -.00000023  00000-0  00000+0 0  9992
2 33380  65.4368 312.5353 0018694 288.3477  69.2646  2.13112216139511

Acompanhe COSMOS 2444 em tempo real com AllMySat

Download on the App Store